COSMOS 1812

Last updated on Sat Mar 07 2026 00:02:14 GMT+0000 (Coordinated Universal Time)

1 17295U 87003A 26065.13056457 .12040831 -12829-5 14059-3 0 9991 2 17295 82.4628 199.5909 0011771 272.0058 87.9898 16.49575463143916

Satellite not in orbit

COSMOS 1812